Year,Month,Day,Hour,Minute,Value (Times are PST for temperature in C)
2009,08,25,00,00,17.80
2009,08,25,00,01,17.80
2009,08,25,00,02,17.80
2009,08,25,00,03,17.80
2009,08,25,00,04,17.80
2009,08,25,00,05,17.80
2009,08,25,00,06,17.80
2009,08,25,00,07,17.80
2009,08,25,00,08,17.90
2009,08,25,00,09,17.90
2009,08,25,00,10,17.90
2009,08,25,00,11,17.90
2009,08,25,00,12,17.90
2009,08,25,00,13,17.90
2009,08,25,00,14,17.90
2009,08,25,00,15,17.90
2009,08,25,00,16,18.00
2009,08,25,00,17,18.10
2009,08,25,00,18,18.10
2009,08,25,00,19,18.10
2009,08,25,00,20,18.10
2009,08,25,00,21,18.10
2009,08,25,00,22,18.10
2009,08,25,00,23,18.00
2009,08,25,00,24,17.90
2009,08,25,00,25,17.90
2009,08,25,00,26,17.90
2009,08,25,00,27,18.00
2009,08,25,00,28,18.10
2009,08,25,00,29,18.10
2009,08,25,00,30,18.10
2009,08,25,00,31,18.10
2009,08,25,00,32,18.10
2009,08,25,00,33,18.10
2009,08,25,00,34,18.10
2009,08,25,00,35,18.10
2009,08,25,00,36,18.10
2009,08,25,00,37,18.10
2009,08,25,00,38,18.10
2009,08,25,00,39,18.10
2009,08,25,00,40,18.10
2009,08,25,00,41,18.10
2009,08,25,00,42,18.10
2009,08,25,00,43,18.10
2009,08,25,00,44,18.10
2009,08,25,00,45,18.10
2009,08,25,00,46,18.10
2009,08,25,00,47,18.10
2009,08,25,00,48,18.10
2009,08,25,00,49,18.10
2009,08,25,00,50,18.10
2009,08,25,00,51,18.10
2009,08,25,00,52,18.10
2009,08,25,00,53,18.10
2009,08,25,00,54,18.20
2009,08,25,00,55,18.10
2009,08,25,00,56,18.10
2009,08,25,00,57,18.00
2009,08,25,00,58,17.90
2009,08,25,00,59,17.90
2009,08,25,01,00,17.90
2009,08,25,01,01,17.80
2009,08,25,01,02,17.80
2009,08,25,01,03,17.70
2009,08,25,01,04,17.70
2009,08,25,01,05,17.60
2009,08,25,01,06,17.60
2009,08,25,01,07,17.50
2009,08,25,01,08,17.50
2009,08,25,01,09,17.40
2009,08,25,01,10,17.30
2009,08,25,01,11,17.30
2009,08,25,01,12,17.30
2009,08,25,01,13,17.20
2009,08,25,01,14,17.20
2009,08,25,01,15,17.20
2009,08,25,01,16,17.10
2009,08,25,01,17,17.10
2009,08,25,01,18,17.00
2009,08,25,01,19,17.00
2009,08,25,01,20,17.00
2009,08,25,01,21,17.00
2009,08,25,01,22,17.00
2009,08,25,01,23,17.00
2009,08,25,01,24,16.90
2009,08,25,01,25,16.90
2009,08,25,01,26,16.90
2009,08,25,01,27,16.80
2009,08,25,01,28,16.80
2009,08,25,01,29,16.80
2009,08,25,01,30,16.80
2009,08,25,01,31,16.70
2009,08,25,01,32,16.70
2009,08,25,01,33,16.70
2009,08,25,01,34,16.70
2009,08,25,01,35,16.70
2009,08,25,01,36,16.70
2009,08,25,01,37,16.70
2009,08,25,01,38,16.70
2009,08,25,01,39,16.70
2009,08,25,01,40,16.70
2009,08,25,01,41,16.70
2009,08,25,01,42,16.70
2009,08,25,01,43,16.70
2009,08,25,01,44,16.60
2009,08,25,01,45,16.60
2009,08,25,01,46,16.60
2009,08,25,01,47,16.60
2009,08,25,01,48,16.60
2009,08,25,01,49,16.60
2009,08,25,01,50,16.60
2009,08,25,01,51,16.60
2009,08,25,01,52,16.60
2009,08,25,01,53,16.40
2009,08,25,01,54,16.40
2009,08,25,01,55,16.40
2009,08,25,01,56,16.40
2009,08,25,01,57,16.40
2009,08,25,01,58,16.40
2009,08,25,01,59,16.40
2009,08,25,02,00,16.40
2009,08,25,02,01,16.30
2009,08,25,02,02,16.30
2009,08,25,02,03,16.30
2009,08,25,02,04,16.30
2009,08,25,02,05,16.30
2009,08,25,02,06,16.30
2009,08,25,02,07,16.20
2009,08,25,02,08,16.20
2009,08,25,02,09,16.20
2009,08,25,02,10,16.20
2009,08,25,02,11,16.20
2009,08,25,02,12,16.20
2009,08,25,02,13,16.10
2009,08,25,02,14,16.10
2009,08,25,02,15,16.10
2009,08,25,02,16,16.10
2009,08,25,02,17,16.10
2009,08,25,02,18,16.10
2009,08,25,02,19,16.10
2009,08,25,02,20,16.10
2009,08,25,02,21,16.10
2009,08,25,02,22,16.10
2009,08,25,02,23,16.10
2009,08,25,02,24,16.10
2009,08,25,02,25,16.10
2009,08,25,02,26,16.10
2009,08,25,02,27,16.10
2009,08,25,02,28,16.10
2009,08,25,02,29,16.10
2009,08,25,02,30,15.90
2009,08,25,02,31,15.90
2009,08,25,02,32,15.90
2009,08,25,02,33,15.90
2009,08,25,02,34,15.90
2009,08,25,02,35,15.90
2009,08,25,02,36,15.90
2009,08,25,02,37,15.90
2009,08,25,02,38,15.90
2009,08,25,02,39,15.90
2009,08,25,02,40,15.90
2009,08,25,02,41,15.90
2009,08,25,02,42,15.90
2009,08,25,02,43,15.80
2009,08,25,02,44,15.80
2009,08,25,02,45,15.80
2009,08,25,02,46,15.80
2009,08,25,02,47,15.80
2009,08,25,02,48,15.80
2009,08,25,02,49,15.80
2009,08,25,02,50,15.70
2009,08,25,02,51,15.70
2009,08,25,02,52,15.70
2009,08,25,02,53,15.60
2009,08,25,02,54,15.60
2009,08,25,02,55,15.50
2009,08,25,02,56,15.50
2009,08,25,02,57,15.50
2009,08,25,02,58,15.50
2009,08,25,02,59,15.50
2009,08,25,03,00,15.50
2009,08,25,03,01,15.50
2009,08,25,03,02,15.50
2009,08,25,03,03,15.50
2009,08,25,03,04,15.50
2009,08,25,03,05,15.50
2009,08,25,03,06,15.50
2009,08,25,07,21,12.90
2009,08,25,07,22,12.90
2009,08,25,07,23,12.90
2009,08,25,07,24,12.90
2009,08,25,07,25,12.90
2009,08,25,07,26,13.00
2009,08,25,07,27,13.00
2009,08,25,07,28,13.00
2009,08,25,07,29,13.00
2009,08,25,07,30,13.00
2009,08,25,07,31,13.00
2009,08,25,07,32,13.10
2009,08,25,07,33,13.10
2009,08,25,07,34,13.10
2009,08,25,07,35,13.10
2009,08,25,07,36,13.10
2009,08,25,07,37,13.10
2009,08,25,07,38,13.10
2009,08,25,07,39,13.10
2009,08,25,07,40,13.20
2009,08,25,07,41,13.20
2009,08,25,07,42,13.20
2009,08,25,07,43,13.20
2009,08,25,07,44,13.20
2009,08,25,07,45,13.20
2009,08,25,07,46,13.20
2009,08,25,07,47,13.20
2009,08,25,07,48,13.20
2009,08,25,07,49,13.20
2009,08,25,07,50,13.30
2009,08,25,07,51,13.30
2009,08,25,07,52,13.30
2009,08,25,07,53,13.30
2009,08,25,07,54,13.30
2009,08,25,07,55,13.30
2009,08,25,07,56,13.30
2009,08,25,07,57,13.30
2009,08,25,07,58,13.40
2009,08,25,07,59,13.40
2009,08,25,08,00,13.40
2009,08,25,08,01,13.50
2009,08,25,08,02,13.50
2009,08,25,08,03,13.60
2009,08,25,08,04,13.60
2009,08,25,08,05,13.60
2009,08,25,08,06,13.70
2009,08,25,08,07,13.70
2009,08,25,08,08,13.70
2009,08,25,08,09,13.80
2009,08,25,08,10,13.90
2009,08,25,08,11,14.00
2009,08,25,08,12,14.10
2009,08,25,08,13,14.10
2009,08,25,08,14,14.10
2009,08,25,08,15,14.20
2009,08,25,08,16,14.20
2009,08,25,08,17,14.20
2009,08,25,08,18,14.20
2009,08,25,08,19,14.20
2009,08,25,08,20,14.20
2009,08,25,08,21,14.20
2009,08,25,08,22,14.20
2009,08,25,08,23,14.20
2009,08,25,08,24,14.20
2009,08,25,08,25,14.20
2009,08,25,08,26,14.20
2009,08,25,08,27,14.20
2009,08,25,08,28,14.20
2009,08,25,08,29,14.20
2009,08,25,08,30,14.20
2009,08,25,08,31,14.20
2009,08,25,08,32,14.20
2009,08,25,08,33,14.20
2009,08,25,08,34,14.20
2009,08,25,08,35,14.20
2009,08,25,08,36,14.20
2009,08,25,08,37,14.20
2009,08,25,08,38,14.20
2009,08,25,08,39,14.20
2009,08,25,08,40,14.20
2009,08,25,08,41,14.20
2009,08,25,08,42,14.20
2009,08,25,08,43,14.20
2009,08,25,08,44,14.20
2009,08,25,08,45,14.20
2009,08,25,08,46,14.20
2009,08,25,08,47,14.30
2009,08,25,08,48,14.30
2009,08,25,08,49,14.30
2009,08,25,08,50,14.40
2009,08,25,08,51,14.40
2009,08,25,08,52,14.50
2009,08,25,08,53,14.60
2009,08,25,08,54,14.60
2009,08,25,08,55,14.60
2009,08,25,08,56,14.60
2009,08,25,08,57,14.70
2009,08,25,08,58,14.70
2009,08,25,08,59,14.80
2009,08,25,09,00,14.80
2009,08,25,09,01,14.90
2009,08,25,09,02,15.00
2009,08,25,09,03,15.00
2009,08,25,09,04,15.00
2009,08,25,09,05,15.10
2009,08,25,09,06,15.10
2009,08,25,09,07,15.20
2009,08,25,09,08,15.20
2009,08,25,09,09,15.30
2009,08,25,09,10,15.30
2009,08,25,09,11,15.40
2009,08,25,09,12,15.40
2009,08,25,09,13,15.40
2009,08,25,09,14,15.40
2009,08,25,09,15,15.40
2009,08,25,09,16,15.30
2009,08,25,09,17,15.30
2009,08,25,09,18,15.30
2009,08,25,09,19,15.30
2009,08,25,09,20,15.30
2009,08,25,09,21,15.30
2009,08,25,09,22,15.30
2009,08,25,09,23,15.30
2009,08,25,09,24,15.30
2009,08,25,09,25,15.30
2009,08,25,09,26,15.30
2009,08,25,09,27,15.30
2009,08,25,09,28,15.30
2009,08,25,09,29,15.40
2009,08,25,09,30,15.40
2009,08,25,09,31,15.40
2009,08,25,09,32,15.40
2009,08,25,09,33,15.40
2009,08,25,09,34,15.40
2009,08,25,09,35,15.40
2009,08,25,09,36,15.40
2009,08,25,09,37,15.40
2009,08,25,09,38,15.30
2009,08,25,09,39,15.30
2009,08,25,09,40,15.30
2009,08,25,09,41,15.40
2009,08,25,09,42,15.40
2009,08,25,09,43,15.50
2009,08,25,09,44,15.60
2009,08,25,09,45,15.70
2009,08,25,09,46,15.80
2009,08,25,09,47,15.80
2009,08,25,09,48,15.80
2009,08,25,09,49,15.90
2009,08,25,09,50,15.90
2009,08,25,09,51,16.00
2009,08,25,09,52,16.10
2009,08,25,09,53,16.10
2009,08,25,09,54,16.10
2009,08,25,09,55,16.20
2009,08,25,09,56,16.30
2009,08,25,09,57,16.40
2009,08,25,09,58,16.40
2009,08,25,09,59,16.50
2009,08,25,10,00,16.60
2009,08,25,10,01,16.70
2009,08,25,10,02,16.70
2009,08,25,10,03,16.80
2009,08,25,10,04,16.80
2009,08,25,10,05,16.80
2009,08,25,10,06,16.70
2009,08,25,10,07,16.70
2009,08,25,10,08,16.60
2009,08,25,10,09,16.60
2009,08,25,10,10,16.50
2009,08,25,10,11,16.40
2009,08,25,10,12,16.40
2009,08,25,10,13,16.30
2009,08,25,10,14,16.20
2009,08,25,10,15,16.10
2009,08,25,10,16,16.10
2009,08,25,10,17,16.00
2009,08,25,10,18,15.90
2009,08,25,10,19,15.90
2009,08,25,10,20,15.90
2009,08,25,10,21,16.00
2009,08,25,10,22,16.10
2009,08,25,10,23,16.10
2009,08,25,10,24,16.10
2009,08,25,10,25,16.10
2009,08,25,10,26,16.10
2009,08,25,10,27,16.10
2009,08,25,10,28,16.20
2009,08,25,10,29,16.30
2009,08,25,10,30,16.20
2009,08,25,10,31,16.20
2009,08,25,10,32,16.20
2009,08,25,10,33,16.20
2009,08,25,10,34,16.10
2009,08,25,10,35,16.10
2009,08,25,10,36,16.10
2009,08,25,10,37,16.10
2009,08,25,10,38,16.10
2009,08,25,10,39,16.10
2009,08,25,10,40,16.00
2009,08,25,10,41,15.90
2009,08,25,10,42,16.00
2009,08,25,10,43,16.10
2009,08,25,10,44,16.10
2009,08,25,10,45,16.20
2009,08,25,10,46,16.10
2009,08,25,10,47,16.20
2009,08,25,10,48,16.20
2009,08,25,10,49,16.40
2009,08,25,10,50,16.40
2009,08,25,10,51,16.40
2009,08,25,10,52,16.40
2009,08,25,10,53,16.40
2009,08,25,10,54,16.40
2009,08,25,10,55,16.50
2009,08,25,10,56,16.50
2009,08,25,10,57,16.40
2009,08,25,10,58,16.30
2009,08,25,10,59,16.20
2009,08,25,11,00,16.20
2009,08,25,11,01,16.20
2009,08,25,11,02,16.20
2009,08,25,11,03,16.20
2009,08,25,11,04,16.30
2009,08,25,11,05,16.30
2009,08,25,11,06,16.30
2009,08,25,11,07,16.30
2009,08,25,11,08,16.30
2009,08,25,11,09,16.30
2009,08,25,11,10,16.20
2009,08,25,11,11,16.20
2009,08,25,11,12,16.10
2009,08,25,11,13,16.10
2009,08,25,11,14,16.10
2009,08,25,11,15,16.20
2009,08,25,11,16,16.20
2009,08,25,11,17,16.30
2009,08,25,11,18,16.30
2009,08,25,11,19,16.40
2009,08,25,11,20,16.40
2009,08,25,11,21,16.40
2009,08,25,11,22,16.40
2009,08,25,11,23,16.40
2009,08,25,11,24,16.50
2009,08,25,11,25,16.60
2009,08,25,11,26,16.70
2009,08,25,11,27,16.70
2009,08,25,11,28,16.60
2009,08,25,11,29,16.70
2009,08,25,11,30,16.70
2009,08,25,11,31,16.70
2009,08,25,11,32,16.70
2009,08,25,11,33,16.70
2009,08,25,11,34,16.70
2009,08,25,11,35,16.80
2009,08,25,11,36,16.90
2009,08,25,11,37,16.90
2009,08,25,11,38,17.00
2009,08,25,11,39,17.00
2009,08,25,11,40,17.00
2009,08,25,11,41,17.10
2009,08,25,11,42,17.10
2009,08,25,11,43,17.10
2009,08,25,11,44,17.30
2009,08,25,11,45,17.40
2009,08,25,11,46,17.60
2009,08,25,11,47,17.70
2009,08,25,11,48,17.90
2009,08,25,11,49,18.20
2009,08,25,11,50,18.30
2009,08,25,11,51,18.50
2009,08,25,11,52,18.60
2009,08,25,11,53,18.80
2009,08,25,11,54,18.80
2009,08,25,11,55,18.80
2009,08,25,11,56,18.80
2009,08,25,11,57,18.80
2009,08,25,11,58,18.70
2009,08,25,11,59,18.70
2009,08,25,12,00,18.70
2009,08,25,12,01,18.80
2009,08,25,12,02,18.90
2009,08,25,12,03,18.90
2009,08,25,12,04,18.80
2009,08,25,12,05,18.80
2009,08,25,12,06,18.70
2009,08,25,12,07,18.70
2009,08,25,12,08,18.80
2009,08,25,12,09,18.90
2009,08,25,12,10,18.90
2009,08,25,12,11,19.00
2009,08,25,12,12,19.10
2009,08,25,12,13,19.30
2009,08,25,12,14,19.40
2009,08,25,12,15,19.50
2009,08,25,12,16,19.60
2009,08,25,12,17,19.70
2009,08,25,12,18,19.70
2009,08,25,12,19,19.60
2009,08,25,12,20,19.60
2009,08,25,12,21,19.50
2009,08,25,12,22,19.40
2009,08,25,12,23,19.40
2009,08,25,12,24,19.40
2009,08,25,12,25,19.40
2009,08,25,12,26,19.40
2009,08,25,12,27,19.40
2009,08,25,12,28,19.40
2009,08,25,12,29,19.50
2009,08,25,12,30,19.60
2009,08,25,12,31,19.60
2009,08,25,12,32,19.60
2009,08,25,12,33,19.70
2009,08,25,12,34,19.80
2009,08,25,12,35,19.80
2009,08,25,12,36,19.90
2009,08,25,12,37,19.90
2009,08,25,12,38,19.80
2009,08,25,12,39,19.70
2009,08,25,12,40,19.70
2009,08,25,12,41,19.70
2009,08,25,12,42,19.70
2009,08,25,12,43,19.70
2009,08,25,12,44,19.70
2009,08,25,12,45,19.80
2009,08,25,12,46,20.00
2009,08,25,12,47,20.10
2009,08,25,12,48,20.20
2009,08,25,12,49,20.10
2009,08,25,12,50,20.10
2009,08,25,12,51,20.10
2009,08,25,12,52,20.10
2009,08,25,12,53,20.10
2009,08,25,12,54,20.00
2009,08,25,12,55,20.00
2009,08,25,12,56,20.10
2009,08,25,12,57,20.10
2009,08,25,12,58,20.20
2009,08,25,12,59,20.30
2009,08,25,13,00,20.30
2009,08,25,13,01,20.30
2009,08,25,13,02,20.20
2009,08,25,13,03,20.20
2009,08,25,13,04,20.20
2009,08,25,13,05,20.20
2009,08,25,13,06,20.10
2009,08,25,13,07,20.10
2009,08,25,13,08,20.10
2009,08,25,13,09,20.10
2009,08,25,13,10,20.20
2009,08,25,13,11,20.10
2009,08,25,13,12,20.10
2009,08,25,13,13,20.10
2009,08,25,13,14,20.10
2009,08,25,13,15,20.10
2009,08,25,13,16,20.10
2009,08,25,13,17,20.10
2009,08,25,13,18,20.10
2009,08,25,13,19,20.10
2009,08,25,13,20,20.10
2009,08,25,13,21,20.10
2009,08,25,13,22,20.50
2009,08,25,13,23,20.80
2009,08,25,13,24,20.80
2009,08,25,13,25,20.90
2009,08,25,13,26,21.00
2009,08,25,13,27,21.10
2009,08,25,13,28,21.10
2009,08,25,13,29,21.20
2009,08,25,13,30,21.20
2009,08,25,13,31,21.30
2009,08,25,13,32,21.30
2009,08,25,13,33,21.30
2009,08,25,13,34,21.30
2009,08,25,13,35,21.20
2009,08,25,13,36,21.20
2009,08,25,13,37,21.10
2009,08,25,13,38,21.10
2009,08,25,13,39,21.20
2009,08,25,13,40,21.20
2009,08,25,13,41,21.20
2009,08,25,13,42,21.20
2009,08,25,13,43,21.20
2009,08,25,13,44,21.20
2009,08,25,13,45,21.10
2009,08,25,13,46,21.10
2009,08,25,13,47,21.00
2009,08,25,13,48,21.00
2009,08,25,13,49,21.00
2009,08,25,13,50,21.00
2009,08,25,13,51,21.00
2009,08,25,13,52,21.00
2009,08,25,13,53,20.90
2009,08,25,13,54,20.90
2009,08,25,13,55,20.90
2009,08,25,13,56,20.90
2009,08,25,13,57,20.90
2009,08,25,13,58,21.00
2009,08,25,13,59,21.10
2009,08,25,14,00,21.10
2009,08,25,14,01,21.10
2009,08,25,14,02,21.00
2009,08,25,14,03,21.00
2009,08,25,14,04,21.00
2009,08,25,14,05,21.10
2009,08,25,14,06,21.10
2009,08,25,14,07,21.10
2009,08,25,14,08,21.20
2009,08,25,14,09,21.20
2009,08,25,14,10,21.20
2009,08,25,14,11,21.20
2009,08,25,14,12,21.30
2009,08,25,14,13,21.40
2009,08,25,14,14,21.40
2009,08,25,14,15,21.30
2009,08,25,14,16,21.30
2009,08,25,14,17,21.40
2009,08,25,14,18,21.50
2009,08,25,14,19,21.60
2009,08,25,14,20,21.80
2009,08,25,14,21,21.80
2009,08,25,14,22,21.80
2009,08,25,14,23,21.80
2009,08,25,14,24,21.70
2009,08,25,14,25,21.60
2009,08,25,14,26,21.50
2009,08,25,14,27,21.40
2009,08,25,14,28,21.40
2009,08,25,14,29,21.30
2009,08,25,14,30,21.30
2009,08,25,14,31,21.20
2009,08,25,14,32,21.10
2009,08,25,14,33,21.00
2009,08,25,14,34,21.00
2009,08,25,14,35,21.00
2009,08,25,14,36,20.90
2009,08,25,14,37,20.80
2009,08,25,14,38,20.80
2009,08,25,14,39,20.80
2009,08,25,14,40,20.70
2009,08,25,14,41,20.70
2009,08,25,14,42,20.70
2009,08,25,14,43,20.80
2009,08,25,14,44,20.80
2009,08,25,14,45,20.80
2009,08,25,14,46,20.80
2009,08,25,14,47,20.90
2009,08,25,14,48,20.90
2009,08,25,14,49,20.90
2009,08,25,14,50,21.00
2009,08,25,14,51,21.00
2009,08,25,14,52,21.00
2009,08,25,14,53,21.00
2009,08,25,14,54,21.10
2009,08,25,14,55,21.10
2009,08,25,14,56,21.00
2009,08,25,14,57,20.80
2009,08,25,14,58,20.80
2009,08,25,14,59,20.80
2009,08,25,15,00,20.80
2009,08,25,15,01,20.90
2009,08,25,15,02,20.90
2009,08,25,15,03,20.90
2009,08,25,15,04,20.90
2009,08,25,15,05,20.80
2009,08,25,15,06,20.70
2009,08,25,15,07,20.70
2009,08,25,15,08,20.70
2009,08,25,15,09,20.60
2009,08,25,15,10,20.60
2009,08,25,15,11,20.60
2009,08,25,15,12,20.50
2009,08,25,15,13,20.50
2009,08,25,15,14,20.60
2009,08,25,15,15,20.60
2009,08,25,15,16,20.60
2009,08,25,15,17,20.80
2009,08,25,15,18,20.70
2009,08,25,15,19,20.70
2009,08,25,15,20,20.80
2009,08,25,15,21,20.90
2009,08,25,15,22,21.00
2009,08,25,15,23,20.90
2009,08,25,15,24,20.80
2009,08,25,15,25,20.80
2009,08,25,15,26,20.70
2009,08,25,15,27,20.70
2009,08,25,15,28,20.80
2009,08,25,15,29,20.90
2009,08,25,15,30,20.90
2009,08,25,15,31,20.90
2009,08,25,15,32,20.80
2009,08,25,15,33,20.50
2009,08,25,15,34,20.30
2009,08,25,15,35,20.20
2009,08,25,15,36,20.20
2009,08,25,15,37,20.00
2009,08,25,15,38,19.80
2009,08,25,15,39,19.60
2009,08,25,15,40,19.40
2009,08,25,15,41,19.30
2009,08,25,15,42,19.10
2009,08,25,15,43,19.00
2009,08,25,15,44,18.90
2009,08,25,15,45,18.90
2009,08,25,15,46,18.90
2009,08,25,15,47,18.90
2009,08,25,15,48,18.90
2009,08,25,15,49,19.10
2009,08,25,15,50,19.30
2009,08,25,15,51,19.50
2009,08,25,15,52,19.50
2009,08,25,15,53,19.60
2009,08,25,15,54,19.70
2009,08,25,15,55,19.80
2009,08,25,15,56,19.90
2009,08,25,15,57,19.90
2009,08,25,15,58,19.90
2009,08,25,15,59,19.90
2009,08,25,16,00,19.90
2009,08,25,16,01,19.90
2009,08,25,16,02,19.80
2009,08,25,16,03,19.90
2009,08,25,16,04,19.90
2009,08,25,16,05,19.90
2009,08,25,16,06,19.90
2009,08,25,16,07,19.80
2009,08,25,16,08,19.70
2009,08,25,16,09,19.50
2009,08,25,16,10,19.50
2009,08,25,16,11,19.50
2009,08,25,16,12,19.50
2009,08,25,16,13,19.60
2009,08,25,16,14,19.60
2009,08,25,16,15,19.50
2009,08,25,16,16,19.40
2009,08,25,16,17,19.30
2009,08,25,16,18,19.20
2009,08,25,16,19,19.30
2009,08,25,16,20,19.30
2009,08,25,16,21,19.30
2009,08,25,16,22,19.10
2009,08,25,16,23,18.90
2009,08,25,16,24,18.70
2009,08,25,16,25,18.50
2009,08,25,16,26,18.30
2009,08,25,16,27,18.30
2009,08,25,16,28,18.30
2009,08,25,16,29,18.30
2009,08,25,16,30,18.10
2009,08,25,16,31,17.90
2009,08,25,16,32,17.80
2009,08,25,16,33,17.80
2009,08,25,16,34,17.80
2009,08,25,16,35,17.80
2009,08,25,16,36,17.80
2009,08,25,16,37,17.90
2009,08,25,16,38,17.90
2009,08,25,16,39,18.00
2009,08,25,16,40,18.10
2009,08,25,16,41,18.00
2009,08,25,16,42,17.90
2009,08,25,16,43,17.80
2009,08,25,16,44,17.80
2009,08,25,16,45,17.70
2009,08,25,16,46,17.70
2009,08,25,16,47,17.70
2009,08,25,16,48,17.60
2009,08,25,16,49,17.60
2009,08,25,16,50,17.60
2009,08,25,16,51,17.70
2009,08,25,16,52,17.80
2009,08,25,16,53,17.90
2009,08,25,16,54,17.80
2009,08,25,16,55,17.90
2009,08,25,16,56,17.90
2009,08,25,16,57,17.90
2009,08,25,16,58,17.90
2009,08,25,16,59,17.80
2009,08,25,17,00,17.60
2009,08,25,17,01,17.60
2009,08,25,17,02,17.60
2009,08,25,17,03,17.60
2009,08,25,17,04,17.50
2009,08,25,17,05,17.50
2009,08,25,17,06,17.40
2009,08,25,17,07,17.40
2009,08,25,17,08,17.40
2009,08,25,17,09,17.30
2009,08,25,17,10,17.30
2009,08,25,17,11,17.30
2009,08,25,17,12,17.20
2009,08,25,17,13,17.10
2009,08,25,17,14,17.00
2009,08,25,17,15,16.80
2009,08,25,17,16,16.80
2009,08,25,17,17,16.70
2009,08,25,17,18,16.60
2009,08,25,17,19,16.60
2009,08,25,17,20,16.60
2009,08,25,17,21,16.70
2009,08,25,17,22,16.70
2009,08,25,17,23,16.50
2009,08,25,17,24,16.40
2009,08,25,17,25,16.40
2009,08,25,17,26,16.40
2009,08,25,17,27,16.40
2009,08,25,17,28,16.40
2009,08,25,17,29,16.40
2009,08,25,17,30,16.30
2009,08,25,17,31,16.20
2009,08,25,17,32,16.10
2009,08,25,17,33,16.10
2009,08,25,17,34,16.10
2009,08,25,17,35,16.10
2009,08,25,17,36,16.20
2009,08,25,17,37,16.30
2009,08,25,17,38,16.40
2009,08,25,17,39,16.40
2009,08,25,17,40,16.40
2009,08,25,17,41,16.40
2009,08,25,17,42,16.50
2009,08,25,17,43,16.60
2009,08,25,17,44,16.60
2009,08,25,17,45,16.50
2009,08,25,17,46,16.40
2009,08,25,17,47,16.30
2009,08,25,17,48,16.10
2009,08,25,17,49,16.10
2009,08,25,17,50,16.20
2009,08,25,17,51,16.20
2009,08,25,17,52,16.30
2009,08,25,17,53,16.30
2009,08,25,17,54,16.30
2009,08,25,17,55,16.30
2009,08,25,17,56,16.30
2009,08,25,17,57,16.30
2009,08,25,17,58,16.30
2009,08,25,17,59,16.40
2009,08,25,18,00,16.40
2009,08,25,18,01,16.50
2009,08,25,18,02,16.60
2009,08,25,18,03,16.60
2009,08,25,18,04,16.50
2009,08,25,18,05,16.40
2009,08,25,18,06,16.40
2009,08,25,18,07,16.30
2009,08,25,18,08,16.20
2009,08,25,18,09,16.20
2009,08,25,18,10,16.10
2009,08,25,18,11,16.10
2009,08,25,18,12,16.00
2009,08,25,18,13,15.90
2009,08,25,18,14,15.90
2009,08,25,18,15,15.80
2009,08,25,18,16,15.80
2009,08,25,18,17,15.70
2009,08,25,18,18,15.60
2009,08,25,18,19,15.60
2009,08,25,18,20,15.40
2009,08,25,18,21,15.30
2009,08,25,18,22,15.20
2009,08,25,18,23,15.10
2009,08,25,18,24,15.10
2009,08,25,18,25,15.10
2009,08,25,18,26,15.10
2009,08,25,18,27,15.10
2009,08,25,18,28,15.10
2009,08,25,18,29,15.20
2009,08,25,18,30,15.20
2009,08,25,18,31,15.30
2009,08,25,18,32,15.40
2009,08,25,18,33,15.50
2009,08,25,18,34,15.60
2009,08,25,18,35,15.70
2009,08,25,18,36,15.80
2009,08,25,18,37,15.80
2009,08,25,18,38,15.90
2009,08,25,18,39,15.90
2009,08,25,18,40,16.10
2009,08,25,18,41,16.10
2009,08,25,18,42,16.10
2009,08,25,18,43,16.20
2009,08,25,18,44,16.30
2009,08,25,18,45,16.40
2009,08,25,18,46,16.40
2009,08,25,18,47,16.40
2009,08,25,18,48,16.50
2009,08,25,18,49,16.60
2009,08,25,18,50,16.70
2009,08,25,18,51,16.70
2009,08,25,18,52,16.80
2009,08,25,18,53,16.90
2009,08,25,18,54,17.00
2009,08,25,18,55,17.00
2009,08,25,18,56,17.10
2009,08,25,18,57,17.20
2009,08,25,18,58,17.20
2009,08,25,18,59,17.30
2009,08,25,19,00,17.30
2009,08,25,19,01,17.20
2009,08,25,19,02,17.20
2009,08,25,19,03,17.10
2009,08,25,19,04,17.10
2009,08,25,19,05,17.10
2009,08,25,19,06,17.00
2009,08,25,19,07,16.90
2009,08,25,19,08,16.80
2009,08,25,19,09,16.80
2009,08,25,19,10,16.80
2009,08,25,19,11,16.80
2009,08,25,19,12,16.80
2009,08,25,19,13,16.90
2009,08,25,19,14,16.90
2009,08,25,19,15,16.90
2009,08,25,19,16,16.90
2009,08,25,19,17,16.90
2009,08,25,19,18,16.80
2009,08,25,19,19,16.80
2009,08,25,19,20,16.70
2009,08,25,19,21,16.70
2009,08,25,19,22,16.60
2009,08,25,19,23,16.50
2009,08,25,19,24,16.40
2009,08,25,19,25,16.30
2009,08,25,19,26,16.30
2009,08,25,19,27,16.30
2009,08,25,19,28,16.30
2009,08,25,19,29,16.20
2009,08,25,19,30,16.20
2009,08,25,19,31,16.20
2009,08,25,19,32,16.20
2009,08,25,19,33,16.10
2009,08,25,19,34,16.10
2009,08,25,19,35,16.10
2009,08,25,19,36,16.10
2009,08,25,19,37,16.10
2009,08,25,19,38,16.20
2009,08,25,19,39,16.20
2009,08,25,19,40,16.20
2009,08,25,19,41,16.30
2009,08,25,19,42,16.30
2009,08,25,19,43,16.30
2009,08,25,19,44,16.30
2009,08,25,19,45,16.30
2009,08,25,19,46,16.40
2009,08,25,19,47,16.40
2009,08,25,19,48,16.40
2009,08,25,19,49,16.40
2009,08,25,19,50,16.40
2009,08,25,19,51,16.40
2009,08,25,19,52,16.40
2009,08,25,19,53,16.40
2009,08,25,19,54,16.40
2009,08,25,19,55,16.40
2009,08,25,19,56,16.40
2009,08,25,19,57,16.40
2009,08,25,19,58,16.30
2009,08,25,19,59,16.30
2009,08,25,20,00,16.30
2009,08,25,20,01,16.30
2009,08,25,20,02,16.30
2009,08,25,20,03,16.30
2009,08,25,20,04,16.30
2009,08,25,20,05,16.40
2009,08,25,20,06,16.40
2009,08,25,20,07,16.40
2009,08,25,20,08,16.40
2009,08,25,20,09,16.40
2009,08,25,20,10,16.40
2009,08,25,20,11,16.40
2009,08,25,20,12,16.40
2009,08,25,20,13,16.40
2009,08,25,20,14,16.40
2009,08,25,20,15,16.40
2009,08,25,20,16,16.40
2009,08,25,20,17,16.40
2009,08,25,20,18,16.60
2009,08,25,20,19,16.60
2009,08,25,20,20,16.70
2009,08,25,20,21,16.70
2009,08,25,20,22,16.70
2009,08,25,20,23,16.80
2009,08,25,20,24,16.80
2009,08,25,20,25,16.80
2009,08,25,20,26,16.80
2009,08,25,20,27,16.80
2009,08,25,20,28,16.80
2009,08,25,20,29,16.80
2009,08,25,20,30,16.80
2009,08,25,20,31,16.80
2009,08,25,20,32,16.80
2009,08,25,20,33,16.90
2009,08,25,20,34,16.90
2009,08,25,20,35,16.90
2009,08,25,20,36,16.90
2009,08,25,20,37,16.90
2009,08,25,20,38,16.90
2009,08,25,20,39,17.00
2009,08,25,20,40,17.00
2009,08,25,20,41,17.10
2009,08,25,20,42,17.10
2009,08,25,20,43,17.10
2009,08,25,20,44,17.10
2009,08,25,20,45,17.10
2009,08,25,20,46,17.10
2009,08,25,20,47,17.10
2009,08,25,20,48,17.10
2009,08,25,20,49,17.10
2009,08,25,20,50,17.10
2009,08,25,20,51,17.20
2009,08,25,20,52,17.20
2009,08,25,20,53,17.10
2009,08,25,20,54,17.10
2009,08,25,20,55,17.10
2009,08,25,20,56,17.10
2009,08,25,20,57,17.10
2009,08,25,20,58,17.10
2009,08,25,20,59,17.10
2009,08,25,21,00,17.10
2009,08,25,21,01,17.10
2009,08,25,21,02,17.10
2009,08,25,21,03,17.10
2009,08,25,21,04,17.10
2009,08,25,21,05,17.10
2009,08,25,21,06,17.10
2009,08,25,21,07,17.10
2009,08,25,21,08,17.10
2009,08,25,21,09,17.10
2009,08,25,21,10,17.10
2009,08,25,21,11,17.10
2009,08,25,21,12,17.10
2009,08,25,21,13,17.10
2009,08,25,21,14,17.10
2009,08,25,21,15,17.10
2009,08,25,21,16,17.10
2009,08,25,21,17,17.00
2009,08,25,21,18,17.00
2009,08,25,21,19,17.10
2009,08,25,21,20,17.10
2009,08,25,21,21,17.10
2009,08,25,21,22,17.10
2009,08,25,21,23,17.10
2009,08,25,21,24,17.10
2009,08,25,21,25,17.10
2009,08,25,21,26,17.10
2009,08,25,21,27,17.10
2009,08,25,21,28,17.10
2009,08,25,21,29,17.00
2009,08,25,21,30,17.00
2009,08,25,21,31,17.00
2009,08,25,21,32,17.00
2009,08,25,21,33,17.00